Time,TemperatureF,DewpointF,PressureIn,WindDirection,WindDirectionDegrees,WindSpeedMPH,WindSpeedGustMPH,Humidity,HourlyPrecipIn,Conditions,Clouds,dailyrainin,SoftwareType,DateUTC
2013-03-01 00:00:00,38.2,35.8,29.52,North,354,0.4,2.3,91,0.00,CLR,,0.00,WeatherDisplay:10.37,2013-03-01 05:00:00,
2013-03-01 00:02:00,38.1,35.7,29.52,North,354,0.0,0.0,91,0.00,CLR,,0.00,WeatherDisplay:10.37,2013-03-01 05:02:00,
2013-03-01 00:07:00,38.1,35.7,29.52,North,353,0.3,2.3,91,0.00,CLR,,0.00,WeatherDisplay:10.37,2013-03-01 05:07:00,
2013-03-01 00:12:00,38.1,35.4,29.52,North,353,1.4,3.5,90,0.00,CLR,,0.00,WeatherDisplay:10.37,2013-03-01 05:12:00,
2013-03-01 00:17:00,38.1,35.4,29.52,North,353,2.1,3.5,90,0.00,CLR,,0.00,WeatherDisplay:10.37,2013-03-01 05:17:00,
2013-03-01 00:22:00,38.1,35.7,29.52,North,0,2.3,4.0,91,0.00,CLR,,0.00,WeatherDisplay:10.37,2013-03-01 05:22:00,
2013-03-01 00:28:00,38.1,35.7,29.52,North,0,1.5,3.5,91,0.00,CLR,,0.00,WeatherDisplay:10.37,2013-03-01 05:28:00,
2013-03-01 00:33:00,38.1,35.7,29.52,NNW,342,2.1,3.5,91,0.00,CLR,,0.00,WeatherDisplay:10.37,2013-03-01 05:33:00,
2013-03-01 00:38:00,38.0,35.6,29.52,NNE,13,1.4,3.5,91,0.00,CLR,,0.00,WeatherDisplay:10.37,2013-03-01 05:38:00,
2013-03-01 00:43:00,38.0,35.6,29.52,North,0,1.9,6.9,91,0.00,CLR,,0.00,WeatherDisplay:10.37,2013-03-01 05:43:00,
2013-03-01 00:49:00,37.9,35.2,29.52,North,0,1.9,3.5,90,0.00,CLR,,0.00,WeatherDisplay:10.37,2013-03-01 05:49:00,
2013-03-01 00:54:00,37.8,35.1,29.52,North,0,2.0,3.5,90,0.00,CLR,,0.00,WeatherDisplay:10.37,2013-03-01 05:54:00,
2013-03-01 00:59:00,37.7,35.0,29.52,NW,309,5.3,7.0,90,0.00,CLR,,0.00,WeatherDisplay:10.37,2013-03-01 05:59:00,
2013-03-01 01:04:00,37.6,34.7,29.52,NW,326,2.1,6.9,89,0.00,CLR,,0.00,WeatherDisplay:10.37,2013-03-01 06:04:00,
2013-03-01 01:09:00,37.4,34.5,29.52,NNW,338,3.1,5.0,89,0.00,CLR,,0.00,WeatherDisplay:10.37,2013-03-01 06:09:00,
2013-03-01 01:14:00,37.3,34.1,29.52,North,355,3.0,4.0,88,0.00,CLR,,0.00,WeatherDisplay:10.37,2013-03-01 06:14:00,
2013-03-01 01:20:00,37.2,34.3,29.52,NNE,19,2.3,5.8,89,0.00,CLR,,0.00,WeatherDisplay:10.37,2013-03-01 06:20:00,
2013-03-01 01:25:00,37.2,34.0,29.53,NNW,333,2.0,3.5,88,0.00,CLR,,0.00,WeatherDisplay:10.37,2013-03-01 06:25:00,
2013-03-01 01:30:00,37.1,33.9,29.52,NNW,332,1.0,6.0,88,0.00,CLR,CLR,0.00,WeatherDisplay:10.37,2013-03-01 06:30:00,
2013-03-01 01:35:00,37.0,33.8,29.52,NNW,334,3.0,5.0,88,0.00,CLR,CLR,0.00,WeatherDisplay:10.37,2013-03-01 06:35:00,
2013-03-01 01:40:00,36.9,33.7,29.52,NNW,335,2.2,5.8,88,0.00,CLR,,0.00,WeatherDisplay:10.37,2013-03-01 06:40:00,
2013-03-01 01:45:00,36.8,33.6,29.53,North,350,2.0,7.0,88,0.00,CLR,CLR,0.00,WeatherDisplay:10.37,2013-03-01 06:45:00,
2013-03-01 01:50:00,36.8,33.3,29.53,North,349,2.0,6.0,87,0.00,CLR,CLR,0.00,WeatherDisplay:10.37,2013-03-01 06:50:00,
2013-03-01 01:55:00,36.7,33.5,29.53,North,351,1.6,3.5,88,0.00,CLR,,0.00,WeatherDisplay:10.37,2013-03-01 06:55:00,
2013-03-01 02:01:00,36.8,33.6,29.53,NE,35,3.0,3.5,88,0.00,CLR,,0.00,WeatherDisplay:10.37,2013-03-01 07:01:00,
2013-03-01 02:06:00,36.7,33.2,29.53,North,350,2.0,3.5,87,0.00,CLR,,0.00,WeatherDisplay:10.37,2013-03-01 07:06:00,
2013-03-01 02:11:00,36.7,33.2,29.53,NNW,347,1.9,3.5,87,0.00,CLR,,0.00,WeatherDisplay:10.37,2013-03-01 07:11:00,
2013-03-01 02:16:00,36.7,33.2,29.53,NNE,24,2.5,3.5,87,0.00,CLR,,0.00,WeatherDisplay:10.37,2013-03-01 07:16:00,
2013-03-01 02:21:00,36.7,33.2,29.52,North,6,3.1,4.6,87,0.00,CLR,,0.00,WeatherDisplay:10.37,2013-03-01 07:21:00,
2013-03-01 02:27:00,36.7,33.5,29.53,North,1,1.2,4.6,88,0.00,CLR,,0.00,WeatherDisplay:10.37,2013-03-01 07:27:00,
2013-03-01 02:32:00,36.7,33.2,29.52,NW,311,2.1,3.5,87,0.00,CLR,,0.00,WeatherDisplay:10.37,2013-03-01 07:32:00,
2013-03-01 02:37:00,36.6,33.4,29.53,North,352,2.5,5.8,88,0.00,CLR,,0.00,WeatherDisplay:10.37,2013-03-01 07:37:00,
2013-03-01 02:42:00,36.6,33.4,29.53,North,0,1.4,3.0,88,0.00,CLR,,0.00,WeatherDisplay:10.37,2013-03-01 07:42:00,
2013-03-01 02:47:00,36.5,33.3,29.53,North,0,0.3,2.3,88,0.00,CLR,,0.00,WeatherDisplay:10.37,2013-03-01 07:47:00,
2013-03-01 02:53:00,36.5,33.3,29.53,North,0,1.1,2.3,88,0.00,CLR,,0.00,WeatherDisplay:10.37,2013-03-01 07:53:00,
2013-03-01 02:58:00,36.5,33.3,29.53,North,10,1.4,3.5,88,0.00,CLR,,0.00,WeatherDisplay:10.37,2013-03-01 07:58:00,
2013-03-01 03:03:00,36.5,33.3,29.53,North,356,1.9,3.5,88,0.00,CLR,,0.00,WeatherDisplay:10.37,2013-03-01 08:03:00,
2013-03-01 03:08:00,36.5,33.3,29.53,North,2,0.7,3.5,88,0.00,CLR,,0.00,WeatherDisplay:10.37,2013-03-01 08:08:00,
2013-03-01 03:14:00,36.5,33.3,29.53,North,0,0.1,1.2,88,0.00,CLR,,0.00,WeatherDisplay:10.37,2013-03-01 08:14:00,
2013-03-01 03:19:00,36.5,33.3,29.53,North,0,1.6,3.5,88,0.00,CLR,,0.00,WeatherDisplay:10.37,2013-03-01 08:19:00,
2013-03-01 03:24:00,36.4,33.2,29.53,North,0,1.3,3.0,88,0.00,CLR,,0.00,WeatherDisplay:10.37,2013-03-01 08:24:00,
2013-03-01 03:29:00,36.4,33.2,29.53,North,0,1.3,2.3,88,0.00,CLR,,0.00,WeatherDisplay:10.37,2013-03-01 08:29:00,
2013-03-01 03:35:00,36.4,33.2,29.53,North,0,1.3,3.5,88,0.00,CLR,,0.00,WeatherDisplay:10.37,2013-03-01 08:35:00,
2013-03-01 03:40:00,36.4,33.2,29.53,North,349,1.0,5.0,88,0.00,CLR,CLR,0.00,WeatherDisplay:10.37,2013-03-01 08:40:00,
2013-03-01 03:45:00,36.4,33.2,29.54,NNW,339,1.6,3.5,88,0.00,CLR,,0.00,WeatherDisplay:10.37,2013-03-01 08:45:00,
2013-03-01 03:50:00,36.4,33.2,29.53,North,0,2.0,3.0,88,0.00,CLR,,0.00,WeatherDisplay:10.37,2013-03-01 08:50:00,
2013-03-01 03:56:00,36.4,33.2,29.54,North,0,1.4,4.0,88,0.00,CLR,,0.00,WeatherDisplay:10.37,2013-03-01 08:56:00,
2013-03-01 04:01:00,36.4,33.2,29.54,North,0,0.0,0.0,88,0.00,CLR,,0.00,WeatherDisplay:10.37,2013-03-01 09:01:00,
2013-03-01 04:06:00,36.4,32.9,29.54,North,0,0.0,2.3,87,0.00,CLR,,0.00,WeatherDisplay:10.37,2013-03-01 09:06:00,
2013-03-01 04:11:00,36.4,32.9,29.54,North,0,2.1,3.5,87,0.00,CLR,,0.00,WeatherDisplay:10.37,2013-03-01 09:11:00,
2013-03-01 04:16:00,36.4,32.9,29.54,North,0,0.5,2.3,87,0.00,CLR,,0.00,WeatherDisplay:10.37,2013-03-01 09:16:00,
2013-03-01 04:22:00,36.3,32.5,29.54,North,0,1.2,3.0,86,0.00,CLR,,0.00,WeatherDisplay:10.37,2013-03-01 09:22:00,
2013-03-01 04:27:00,36.3,32.5,29.55,North,0,1.7,3.5,86,0.00,CLR,,0.00,WeatherDisplay:10.37,2013-03-01 09:27:00,
2013-03-01 04:32:00,36.2,32.7,29.55,North,0,0.0,2.3,87,0.00,CLR,,0.00,WeatherDisplay:10.37,2013-03-01 09:32:00,
2013-03-01 04:37:00,36.2,32.7,29.55,North,0,0.9,3.5,87,0.00,CLR,,0.00,WeatherDisplay:10.37,2013-03-01 09:37:00,
2013-03-01 04:42:00,36.2,32.4,29.55,North,0,1.0,3.5,86,0.00,CLR,,0.00,WeatherDisplay:10.37,2013-03-01 09:42:00,
2013-03-01 04:47:00,36.1,32.6,29.54,North,0,1.3,2.3,87,0.00,CLR,,0.00,WeatherDisplay:10.37,2013-03-01 09:47:00,
2013-03-01 04:53:00,36.1,32.6,29.55,North,0,0.0,2.3,87,0.00,CLR,,0.00,WeatherDisplay:10.37,2013-03-01 09:53:00,
2013-03-01 04:58:00,36.2,32.7,29.55,North,0,0.3,2.0,87,0.00,CLR,,0.00,WeatherDisplay:10.37,2013-03-01 09:58:00,
2013-03-01 05:04:00,36.3,32.5,29.55,North,0,0.0,0.0,86,0.00,CLR,,0.00,WeatherDisplay:10.37,2013-03-01 10:04:00,
2013-03-01 05:09:00,36.3,32.5,29.55,North,0,0.0,1.2,86,0.00,CLR,,0.00,WeatherDisplay:10.37,2013-03-01 10:09:00,
2013-03-01 05:14:00,36.3,32.8,29.55,North,0,0.9,2.3,87,0.00,CLR,,0.00,WeatherDisplay:10.37,2013-03-01 10:14:00,
2013-03-01 05:19:00,36.3,32.5,29.55,North,0,0.2,1.2,86,0.00,CLR,,0.00,WeatherDisplay:10.37,2013-03-01 10:19:00,
2013-03-01 05:24:00,36.3,32.5,29.55,North,0,0.0,1.2,86,0.00,CLR,,0.00,WeatherDisplay:10.37,2013-03-01 10:24:00,
2013-03-01 05:29:00,36.3,32.5,29.56,North,0,1.4,3.5,86,0.00,CLR,,0.00,WeatherDisplay:10.37,2013-03-01 10:29:00,
2013-03-01 05:35:00,36.3,32.5,29.56,North,0,0.0,2.3,86,0.00,CLR,,0.00,WeatherDisplay:10.37,2013-03-01 10:35:00,
2013-03-01 05:40:00,36.4,32.6,29.56,North,0,1.1,2.3,86,0.00,CLR,,0.00,WeatherDisplay:10.37,2013-03-01 10:40:00,
2013-03-01 05:45:00,36.4,32.6,29.56,North,0,1.0,3.0,86,0.00,CLR,CLR,0.00,WeatherDisplay:10.37,2013-03-01 10:45:00,
2013-03-01 05:50:00,36.3,32.5,29.56,North,0,1.0,2.0,86,0.00,CLR,CLR,0.00,WeatherDisplay:10.37,2013-03-01 10:50:00,
2013-03-01 05:55:00,36.1,32.3,29.56,North,0,0.0,2.3,86,0.00,CLR,,0.00,WeatherDisplay:10.37,2013-03-01 10:55:00,
2013-03-01 06:00:00,35.9,32.1,29.56,North,0,0.0,1.2,86,0.00,CLR,,0.00,WeatherDisplay:10.37,2013-03-01 11:00:00,
2013-03-01 06:05:00,35.6,32.1,29.56,North,0,0.0,1.2,87,0.00,CLR,,0.00,WeatherDisplay:10.37,2013-03-01 11:05:00,
2013-03-01 06:11:00,35.2,32.0,29.56,North,0,0.5,2.3,88,0.00,CLR,,0.00,WeatherDisplay:10.37,2013-03-01 11:11:00,
2013-03-01 06:16:00,34.8,31.6,29.56,North,0,0.2,2.0,88,0.00,CLR,,0.00,WeatherDisplay:10.37,2013-03-01 11:16:00,
2013-03-01 06:21:00,34.5,31.6,29.56,North,0,0.0,1.2,89,0.00,CLR,,0.00,WeatherDisplay:10.37,2013-03-01 11:21:00,
2013-03-01 06:26:00,34.3,31.4,29.56,North,0,1.0,2.3,89,0.00,CLR,,0.00,WeatherDisplay:10.37,2013-03-01 11:26:00,
2013-03-01 06:32:00,34.2,31.6,29.56,North,0,1.6,3.5,90,0.00,CLR,,0.00,WeatherDisplay:10.37,2013-03-01 11:32:00,
2013-03-01 06:37:00,34.4,31.8,29.56,North,0,0.4,1.2,90,0.00,CLR,,0.00,WeatherDisplay:10.37,2013-03-01 11:37:00,
2013-03-01 06:42:00,34.6,32.0,29.56,North,0,1.3,3.5,90,0.00,CLR,,0.00,WeatherDisplay:10.37,2013-03-01 11:42:00,
2013-03-01 06:47:00,34.8,31.9,29.56,North,0,0.4,2.0,89,0.00,CLR,,0.00,WeatherDisplay:10.37,2013-03-01 11:47:00,
2013-03-01 06:53:00,35.0,31.8,29.57,North,0,0.8,1.2,88,0.00,CLR,,0.00,WeatherDisplay:10.37,2013-03-01 11:53:00,
2013-03-01 06:58:00,35.1,31.9,29.57,North,0,0.0,3.5,88,0.00,CLR,,0.00,WeatherDisplay:10.37,2013-03-01 11:58:00,
2013-03-01 07:03:00,35.3,32.1,29.57,NNW,334,0.8,3.5,88,0.00,CLR,,0.00,WeatherDisplay:10.37,2013-03-01 12:03:00,
2013-03-01 07:08:00,35.5,32.0,29.57,North,357,0.5,2.3,87,0.00,CLR,,0.00,WeatherDisplay:10.37,2013-03-01 12:08:00,
2013-03-01 07:13:00,35.7,32.2,29.57,North,357,0.9,2.3,87,0.00,CLR,,0.00,WeatherDisplay:10.37,2013-03-01 12:13:00,
2013-03-01 07:18:00,35.9,32.4,29.57,North,357,1.7,2.3,87,0.00,CLR,,0.00,WeatherDisplay:10.37,2013-03-01 12:18:00,
2013-03-01 07:24:00,35.9,32.1,29.57,North,356,1.9,3.5,86,0.00,CLR,,0.00,WeatherDisplay:10.37,2013-03-01 12:24:00,
2013-03-01 07:29:00,36.0,32.2,29.58,NNW,346,0.5,1.2,86,0.00,CLR,,0.00,WeatherDisplay:10.37,2013-03-01 12:29:00,
2013-03-01 07:34:00,36.3,32.5,29.58,NNW,346,0.0,0.0,86,0.00,CLR,,0.00,WeatherDisplay:10.37,2013-03-01 12:34:00,
2013-03-01 07:39:00,36.6,32.5,29.58,NNW,346,0.3,1.2,85,0.00,CLR,,0.00,WeatherDisplay:10.37,2013-03-01 12:39:00,
2013-03-01 07:44:00,36.8,32.4,29.58,NNW,346,1.2,3.5,84,0.00,CLR,,0.00,WeatherDisplay:10.37,2013-03-01 12:44:00,
2013-03-01 07:50:00,37.0,32.6,29.59,NW,321,1.4,3.5,84,0.00,CLR,,0.00,WeatherDisplay:10.37,2013-03-01 12:50:00,
2013-03-01 07:55:00,37.1,32.4,29.59,WNW,303,1.6,3.5,83,0.00,CLR,,0.00,WeatherDisplay:10.37,2013-03-01 12:55:00,
2013-03-01 08:00:00,37.4,32.7,29.59,NW,314,2.0,5.0,83,0.00,CLR,CLR,0.00,WeatherDisplay:10.37,2013-03-01 13:00:00,
2013-03-01 08:05:00,37.6,32.6,29.59,NNW,328,2.0,4.0,82,0.00,CLR,CLR,0.00,WeatherDisplay:10.37,2013-03-01 13:05:00,
2013-03-01 08:10:00,37.8,32.8,29.59,NW,323,2.0,4.0,82,0.00,CLR,CLR,0.00,WeatherDisplay:10.37,2013-03-01 13:10:00,
2013-03-01 08:15:00,38.1,33.1,29.59,West,259,2.6,4.0,82,0.00,CLR,,0.00,WeatherDisplay:10.37,2013-03-01 13:15:00,
2013-03-01 08:20:00,38.3,33.3,29.59,NW,304,2.6,3.5,82,0.00,CLR,,0.00,WeatherDisplay:10.37,2013-03-01 13:20:00,
2013-03-01 08:26:00,38.5,33.5,29.59,WNW,285,3.2,4.0,82,0.00,CLR,,0.00,WeatherDisplay:10.37,2013-03-01 13:26:00,
2013-03-01 08:31:00,38.6,33.3,29.60,NW,316,2.4,6.9,81,0.00,CLR,,0.00,WeatherDisplay:10.37,2013-03-01 13:31:00,
2013-03-01 08:36:00,38.7,33.1,29.60,WNW,301,2.5,5.8,80,0.00,CLR,,0.00,WeatherDisplay:10.37,2013-03-01 13:36:00,
2013-03-01 08:41:00,38.9,33.3,29.60,NW,313,2.9,5.0,80,0.00,CLR,,0.00,WeatherDisplay:10.37,2013-03-01 13:41:00,
2013-03-01 08:46:00,39.2,33.2,29.60,North,0,4.2,8.1,79,0.00,CLR,,0.00,WeatherDisplay:10.37,2013-03-01 13:46:00,
2013-03-01 08:51:00,39.4,33.1,29.59,NW,308,4.4,5.8,78,0.00,CLR,,0.00,WeatherDisplay:10.37,2013-03-01 13:51:00,
2013-03-01 08:57:00,39.5,33.2,29.60,North,359,5.3,10.0,78,0.00,CLR,,0.00,WeatherDisplay:10.37,2013-03-01 13:57:00,
2013-03-01 09:02:00,39.6,33.0,29.60,WNW,299,2.2,4.0,77,0.00,CLR,,0.00,WeatherDisplay:10.37,2013-03-01 14:02:00,
2013-03-01 09:07:00,39.7,32.8,29.60,NW,310,2.6,5.8,76,0.00,CLR,,0.00,WeatherDisplay:10.37,2013-03-01 14:07:00,
2013-03-01 09:12:00,39.6,32.7,29.60,NW,320,3.9,6.9,76,0.00,CLR,,0.00,WeatherDisplay:10.37,2013-03-01 14:12:00,
2013-03-01 09:17:00,39.6,32.7,29.60,NW,309,1.6,3.5,76,0.00,CLR,,0.00,WeatherDisplay:10.37,2013-03-01 14:17:00,
2013-03-01 09:23:00,39.6,32.3,29.61,NW,319,3.2,6.9,75,0.00,CLR,,0.00,WeatherDisplay:10.37,2013-03-01 14:23:00,
2013-03-01 09:28:00,39.8,32.2,29.61,NW,314,4.5,9.2,74,0.00,CLR,,0.00,WeatherDisplay:10.37,2013-03-01 14:28:00,
2013-03-01 09:33:00,39.9,31.9,29.60,NW,309,5.0,8.1,73,0.00,CLR,,0.00,WeatherDisplay:10.37,2013-03-01 14:33:00,
2013-03-01 09:38:00,39.9,31.6,29.60,NW,316,3.7,6.9,72,0.00,CLR,,0.00,WeatherDisplay:10.37,2013-03-01 14:38:00,
2013-03-01 09:43:00,40.1,31.8,29.60,NNE,18,3.8,9.2,72,0.00,CLR,,0.00,WeatherDisplay:10.37,2013-03-01 14:43:00,
2013-03-01 09:48:00,40.3,31.6,29.60,NW,309,3.1,5.0,71,0.00,CLR,,0.00,WeatherDisplay:10.37,2013-03-01 14:48:00,
2013-03-01 09:54:00,40.4,31.4,29.60,North,0,2.4,5.8,70,0.00,CLR,,0.00,WeatherDisplay:10.37,2013-03-01 14:54:00,
2013-03-01 09:59:00,40.5,31.1,29.60,NW,311,3.9,7.0,69,0.00,CLR,,0.00,WeatherDisplay:10.37,2013-03-01 14:59:00,
2013-03-01 10:04:00,40.7,31.3,29.60,WNW,295,4.0,6.9,69,0.00,CLR,,0.00,WeatherDisplay:10.37,2013-03-01 15:04:00,
2013-03-01 10:09:00,41.1,31.7,29.60,NW,315,2.6,5.0,69,0.00,CLR,,0.00,WeatherDisplay:10.37,2013-03-01 15:09:00,
2013-03-01 10:15:00,41.4,31.3,29.60,NW,324,3.2,8.1,67,0.00,CLR,,0.00,WeatherDisplay:10.37,2013-03-01 15:15:00,
2013-03-01 10:20:00,41.8,31.7,29.60,NNW,331,3.0,7.0,67,0.00,CLR,CLR,0.00,WeatherDisplay:10.37,2013-03-01 15:20:00,
2013-03-01 10:25:00,42.5,31.9,29.60,NNW,336,4.2,7.0,66,0.00,CLR,,0.00,WeatherDisplay:10.37,2013-03-01 15:25:00,
2013-03-01 10:30:00,42.7,31.7,29.60,NW,311,4.7,5.8,65,0.00,CLR,,0.00,WeatherDisplay:10.37,2013-03-01 15:30:00,
2013-03-01 10:35:00,42.9,31.6,29.60,WNW,302,4.1,7.0,64,0.00,CLR,,0.00,WeatherDisplay:10.37,2013-03-01 15:35:00,
2013-03-01 10:41:00,43.2,31.8,29.60,NW,319,2.0,6.9,64,0.00,CLR,,0.00,WeatherDisplay:10.37,2013-03-01 15:41:00,
2013-03-01 10:46:00,43.4,31.6,29.60,North,10,4.2,7.0,63,0.00,CLR,,0.00,WeatherDisplay:10.37,2013-03-01 15:46:00,
2013-03-01 10:51:00,43.4,31.6,29.60,NW,320,3.6,8.1,63,0.00,CLR,,0.00,WeatherDisplay:10.37,2013-03-01 15:51:00,
2013-03-01 10:56:00,43.3,31.5,29.61,North,0,4.5,5.8,63,0.00,CLR,,0.00,WeatherDisplay:10.37,2013-03-01 15:56:00,
2013-03-01 11:01:00,43.5,31.7,29.61,North,349,3.8,8.0,63,0.00,CLR,,0.00,WeatherDisplay:10.37,2013-03-01 16:01:00,
2013-03-01 11:07:00,43.4,31.2,29.61,North,353,6.2,10.0,62,0.00,CLR,,0.00,WeatherDisplay:10.37,2013-03-01 16:07:00,
2013-03-01 11:12:00,43.1,31.0,29.61,NW,313,8.1,17.3,62,0.00,CLR,,0.00,WeatherDisplay:10.37,2013-03-01 16:12:00,
2013-03-01 11:17:00,42.9,30.8,29.61,North,356,3.9,9.0,62,0.00,CLR,,0.00,WeatherDisplay:10.37,2013-03-01 16:17:00,
2013-03-01 11:22:00,42.8,30.7,29.61,NNW,328,5.1,8.1,62,0.00,CLR,,0.00,WeatherDisplay:10.37,2013-03-01 16:22:00,
2013-03-01 11:28:00,42.4,30.7,29.62,North,6,4.5,10.0,63,0.00,CLR,,0.00,WeatherDisplay:10.37,2013-03-01 16:28:00,
2013-03-01 11:33:00,42.3,31.0,29.62,North,0,3.2,6.0,64,0.00,CLR,,0.00,WeatherDisplay:10.37,2013-03-01 16:33:00,
2013-03-01 11:38:00,42.4,31.1,29.62,North,0,4.7,6.9,64,0.00,CLR,,0.00,WeatherDisplay:10.37,2013-03-01 16:38:00,
2013-03-01 11:43:00,42.4,30.7,29.61,North,354,3.2,4.6,63,0.00,CLR,,0.00,WeatherDisplay:10.37,2013-03-01 16:43:00,
2013-03-01 11:49:00,42.3,31.0,29.61,North,0,3.1,6.9,64,0.00,CLR,,0.00,WeatherDisplay:10.37,2013-03-01 16:49:00,
2013-03-01 11:54:00,42.4,31.1,29.61,North,1,4.3,6.9,64,0.00,CLR,,0.00,WeatherDisplay:10.37,2013-03-01 16:54:00,
2013-03-01 11:59:00,42.3,31.0,29.61,North,354,2.5,6.9,64,0.00,CLR,,0.00,WeatherDisplay:10.37,2013-03-01 16:59:00,
2013-03-01 12:05:00,42.2,30.9,29.61,North,0,2.2,6.9,64,0.00,CLR,,0.00,WeatherDisplay:10.37,2013-03-01 17:05:00,
2013-03-01 12:10:00,42.2,30.9,29.61,North,0,2.1,3.0,64,0.00,CLR,,0.00,WeatherDisplay:10.37,2013-03-01 17:10:00,
2013-03-01 12:15:00,42.1,30.4,29.61,NNW,341,3.0,7.0,63,0.00,CLR,CLR,0.00,WeatherDisplay:10.37,2013-03-01 17:15:00,
2013-03-01 12:20:00,41.9,29.8,29.61,NW,323,5.0,8.0,62,0.00,CLR,CLR,0.00,WeatherDisplay:10.37,2013-03-01 17:20:00,
2013-03-01 12:25:00,41.7,29.6,29.60,NW,318,5.0,10.0,62,0.00,CLR,CLR,0.00,WeatherDisplay:10.37,2013-03-01 17:25:00,
2013-03-01 12:30:00,41.7,29.6,29.60,NW,316,2.0,6.0,62,0.00,CLR,CLR,0.00,WeatherDisplay:10.37,2013-03-01 17:30:00,
2013-03-01 12:35:00,41.7,29.6,29.60,NW,318,2.0,7.0,62,0.00,CLR,CLR,0.00,WeatherDisplay:10.37,2013-03-01 17:35:00,
2013-03-01 12:40:00,41.7,30.0,29.60,NNW,327,1.0,8.0,63,0.00,CLR,CLR,0.00,WeatherDisplay:10.37,2013-03-01 17:40:00,
2013-03-01 12:45:00,41.8,30.1,29.60,NNW,340,3.0,5.0,63,0.00,CLR,CLR,0.00,WeatherDisplay:10.37,2013-03-01 17:45:00,
2013-03-01 12:50:00,41.9,31.0,29.60,North,8,5.0,7.0,65,0.00,CLR,CLR,0.00,WeatherDisplay:10.37,2013-03-01 17:50:00,
2013-03-01 12:55:00,41.9,31.0,29.60,North,11,5.0,8.0,65,0.00,CLR,CLR,0.00,WeatherDisplay:10.37,2013-03-01 17:55:00,
2013-03-01 13:00:00,41.8,30.9,29.60,NNE,27,3.2,4.0,65,0.00,CLR,,0.00,WeatherDisplay:10.37,2013-03-01 18:00:00,
2013-03-01 13:05:00,41.7,30.8,29.60,NNE,28,0.8,3.0,65,0.00,CLR,,0.00,WeatherDisplay:10.37,2013-03-01 18:05:00,
2013-03-01 13:10:00,41.7,31.2,29.60,North,355,3.7,5.8,66,0.00,CLR,,0.00,WeatherDisplay:10.37,2013-03-01 18:10:00,
2013-03-01 13:16:00,41.7,30.8,29.60,NNW,337,1.9,3.5,65,0.00,CLR,,0.00,WeatherDisplay:10.37,2013-03-01 18:16:00,
2013-03-01 13:21:00,41.7,31.2,29.60,NNE,14,1.0,3.5,66,0.00,CLR,,0.00,WeatherDisplay:10.37,2013-03-01 18:21:00,
2013-03-01 13:26:00,41.6,30.7,29.60,NNE,15,3.1,5.0,65,0.00,CLR,,0.00,WeatherDisplay:10.37,2013-03-01 18:26:00,
2013-03-01 13:31:00,41.6,30.3,29.60,NNE,22,1.2,3.5,64,0.00,CLR,,0.00,WeatherDisplay:10.37,2013-03-01 18:31:00,
2013-03-01 13:36:00,41.6,30.7,29.60,North,6,1.6,2.3,65,0.00,CLR,,0.00,WeatherDisplay:10.37,2013-03-01 18:36:00,
2013-03-01 13:42:00,41.5,30.6,29.60,North,0,2.4,5.8,65,0.00,CLR,,0.00,WeatherDisplay:10.37,2013-03-01 18:42:00,
2013-03-01 13:47:00,41.4,30.5,29.60,NW,305,3.4,4.0,65,0.00,CLR,,0.00,WeatherDisplay:10.37,2013-03-01 18:47:00,
2013-03-01 13:52:00,41.2,30.3,29.60,NW,313,3.0,4.6,65,0.00,CLR,,0.00,WeatherDisplay:10.37,2013-03-01 18:52:00,
2013-03-01 13:57:00,41.3,30.4,29.60,NW,311,2.4,4.6,65,0.00,CLR,,0.00,WeatherDisplay:10.37,2013-03-01 18:57:00,
2013-03-01 14:02:00,41.5,29.8,29.60,NW,321,2.6,5.0,63,0.00,CLR,,0.00,WeatherDisplay:10.37,2013-03-01 19:02:00,
2013-03-01 14:08:00,41.8,30.1,29.60,SW,232,3.9,5.0,63,0.00,CLR,,0.00,WeatherDisplay:10.37,2013-03-01 19:08:00,
2013-03-01 14:13:00,41.9,29.8,29.60,NW,318,2.4,3.5,62,0.00,CLR,,0.00,WeatherDisplay:10.37,2013-03-01 19:13:00,
2013-03-01 14:18:00,42.1,29.6,29.60,NW,318,3.6,4.6,61,0.00,CLR,,0.00,WeatherDisplay:10.37,2013-03-01 19:18:00,
2013-03-01 14:24:00,42.3,29.0,29.60,NW,307,3.0,5.8,59,0.00,CLR,,0.00,WeatherDisplay:10.37,2013-03-01 19:24:00,
2013-03-01 14:29:00,42.3,29.0,29.60,NW,313,3.1,8.1,59,0.00,CLR,,0.00,WeatherDisplay:10.37,2013-03-01 19:29:00,
2013-03-01 14:34:00,42.4,29.1,29.60,NNW,327,2.6,5.0,59,0.00,CLR,,0.00,WeatherDisplay:10.37,2013-03-01 19:34:00,
2013-03-01 14:39:00,42.4,28.7,29.60,North,349,5.3,11.5,58,0.00,CLR,,0.00,WeatherDisplay:10.37,2013-03-01 19:39:00,
2013-03-01 14:44:00,42.1,28.4,29.61,North,359,5.1,6.9,58,0.00,CLR,,0.00,WeatherDisplay:10.37,2013-03-01 19:44:00,
2013-03-01 14:49:00,42.0,28.7,29.61,NW,324,2.5,4.6,59,0.00,CLR,,0.00,WeatherDisplay:10.37,2013-03-01 19:49:00,
2013-03-01 14:55:00,42.0,28.7,29.61,NW,315,3.5,6.9,59,0.00,CLR,,0.00,WeatherDisplay:10.37,2013-03-01 19:55:00,
2013-03-01 15:00:00,41.9,28.6,29.61,WNW,293,4.0,6.0,59,0.00,CLR,,0.00,WeatherDisplay:10.37,2013-03-01 20:00:00,
2013-03-01 15:05:00,41.6,28.3,29.61,NW,308,3.0,6.0,59,0.00,CLR,CLR,0.00,WeatherDisplay:10.37,2013-03-01 20:05:00,
2013-03-01 15:10:00,41.5,28.2,29.61,NW,322,6.0,10.0,59,0.00,CLR,CLR,0.00,WeatherDisplay:10.37,2013-03-01 20:10:00,
2013-03-01 15:15:00,41.3,28.0,29.61,NNW,328,3.0,7.0,59,0.00,CLR,CLR,0.00,WeatherDisplay:10.37,2013-03-01 20:15:00,
2013-03-01 15:20:00,41.2,28.4,29.61,NNW,330,3.0,8.0,60,0.00,CLR,CLR,0.00,WeatherDisplay:10.37,2013-03-01 20:20:00,
2013-03-01 15:25:00,41.0,27.8,29.62,NW,326,6.0,10.0,59,0.00,CLR,CLR,0.00,WeatherDisplay:10.37,2013-03-01 20:25:00,
2013-03-01 15:30:00,40.9,28.1,29.62,NW,321,2.0,9.0,60,0.00,CLR,CLR,0.00,WeatherDisplay:10.37,2013-03-01 20:30:00,
2013-03-01 15:35:00,40.8,28.0,29.62,NW,319,3.0,10.4,60,0.00,CLR,,0.00,WeatherDisplay:10.37,2013-03-01 20:35:00,
2013-03-01 15:40:00,40.7,27.9,29.62,NW,315,3.0,10.0,60,0.00,CLR,CLR,0.00,WeatherDisplay:10.37,2013-03-01 20:40:00,
2013-03-01 15:45:00,40.6,27.8,29.62,NW,315,3.0,8.0,60,0.00,CLR,CLR,0.00,WeatherDisplay:10.37,2013-03-01 20:45:00,
2013-03-01 15:50:00,40.5,27.7,29.62,NW,316,2.0,7.0,60,0.00,CLR,CLR,0.00,WeatherDisplay:10.37,2013-03-01 20:50:00,
2013-03-01 15:55:00,40.4,28.0,29.62,NW,318,3.0,7.0,61,0.00,CLR,CLR,0.00,WeatherDisplay:10.37,2013-03-01 20:55:00,
2013-03-01 16:00:00,40.3,27.9,29.62,NW,314,3.0,8.0,61,0.00,CLR,CLR,0.00,WeatherDisplay:10.37,2013-03-01 21:00:00,
2013-03-01 16:05:00,40.3,27.9,29.62,NW,310,5.0,7.0,61,0.00,CLR,CLR,0.00,WeatherDisplay:10.37,2013-03-01 21:05:00,
2013-03-01 16:10:00,40.2,27.8,29.62,NW,318,3.7,5.8,61,0.00,CLR,,0.00,WeatherDisplay:10.37,2013-03-01 21:10:00,
2013-03-01 16:15:00,40.2,27.8,29.62,NW,320,3.0,5.0,61,0.00,CLR,CLR,0.00,WeatherDisplay:10.37,2013-03-01 21:15:00,
2013-03-01 16:20:00,40.1,27.8,29.62,NW,317,2.0,6.0,61,0.00,CLR,CLR,0.00,WeatherDisplay:10.37,2013-03-01 21:20:00,
2013-03-01 16:25:00,40.1,27.7,29.62,NNW,334,3.0,9.0,61,0.00,CLR,CLR,0.00,WeatherDisplay:10.37,2013-03-01 21:25:00,
2013-03-01 16:30:00,40.1,28.1,29.62,NNW,347,1.0,3.0,62,0.00,CLR,CLR,0.00,WeatherDisplay:10.37,2013-03-01 21:30:00,
2013-03-01 16:35:00,40.1,28.1,29.63,NNW,334,2.0,6.0,62,0.00,CLR,CLR,0.00,WeatherDisplay:10.37,2013-03-01 21:35:00,
2013-03-01 16:40:00,40.0,28.0,29.63,NW,316,2.0,5.0,62,0.00,CLR,CLR,0.00,WeatherDisplay:10.37,2013-03-01 21:40:00,
2013-03-01 16:45:00,39.9,28.3,29.63,NW,315,2.0,5.0,63,0.00,CLR,CLR,0.00,WeatherDisplay:10.37,2013-03-01 21:45:00,
2013-03-01 16:50:00,39.9,27.9,29.63,NW,324,2.0,5.0,62,0.00,CLR,CLR,0.00,WeatherDisplay:10.37,2013-03-01 21:50:00,
2013-03-01 16:55:00,39.8,28.2,29.64,NW,318,2.0,5.0,63,0.00,CLR,CLR,0.00,WeatherDisplay:10.37,2013-03-01 21:55:00,
2013-03-01 17:00:00,39.6,27.7,29.64,NW,314,5.0,6.0,62,0.00,CLR,CLR,0.00,WeatherDisplay:10.37,2013-03-01 22:00:00,
2013-03-01 17:05:00,39.5,27.9,29.64,NW,319,2.0,5.0,63,0.00,CLR,CLR,0.00,WeatherDisplay:10.37,2013-03-01 22:05:00,
2013-03-01 17:10:00,39.5,27.9,29.64,NW,317,3.0,5.0,63,0.00,CLR,CLR,0.00,WeatherDisplay:10.37,2013-03-01 22:10:00,
2013-03-01 17:15:00,39.4,28.2,29.64,NW,313,1.0,3.0,64,0.00,CLR,CLR,0.00,WeatherDisplay:10.37,2013-03-01 22:15:00,
2013-03-01 17:20:00,39.3,28.1,29.64,NW,311,1.9,4.0,64,0.00,CLR,,0.00,WeatherDisplay:10.37,2013-03-01 22:20:00,
2013-03-01 17:25:00,39.3,28.1,29.64,NNW,331,1.0,4.0,64,0.00,CLR,CLR,0.00,WeatherDisplay:10.37,2013-03-01 22:25:00,
2013-03-01 17:30:00,39.2,28.0,29.64,NNW,334,3.0,5.0,64,0.00,CLR,CLR,0.00,WeatherDisplay:10.37,2013-03-01 22:30:00,
2013-03-01 17:35:00,39.1,27.9,29.64,NW,320,1.3,3.5,64,0.00,CLR,,0.00,WeatherDisplay:10.37,2013-03-01 22:35:00,
2013-03-01 17:40:00,39.0,28.2,29.64,NW,320,0.9,2.3,65,0.00,CLR,,0.00,WeatherDisplay:10.37,2013-03-01 22:40:00,
2013-03-01 17:45:00,38.9,27.8,29.65,North,354,3.2,4.0,64,0.00,CLR,,0.00,WeatherDisplay:10.37,2013-03-01 22:45:00,
2013-03-01 17:51:00,38.9,28.1,29.65,NW,313,1.9,3.5,65,0.00,CLR,,0.00,WeatherDisplay:10.37,2013-03-01 22:51:00,
2013-03-01 17:56:00,38.8,28.0,29.65,NW,321,2.6,4.0,65,0.00,CLR,,0.00,WeatherDisplay:10.37,2013-03-01 22:56:00,
2013-03-01 18:01:00,38.8,28.0,29.65,NW,322,2.1,3.5,65,0.00,CLR,,0.00,WeatherDisplay:10.37,2013-03-01 23:01:00,
2013-03-01 18:06:00,38.7,27.9,29.65,NW,308,1.4,3.0,65,0.00,CLR,,0.00,WeatherDisplay:10.37,2013-03-01 23:06:00,
2013-03-01 18:11:00,38.7,28.3,29.66,NW,308,0.6,2.0,66,0.00,CLR,,0.00,WeatherDisplay:10.37,2013-03-01 23:11:00,
2013-03-01 18:17:00,38.6,27.8,29.66,NW,318,2.6,4.0,65,0.00,CLR,,0.00,WeatherDisplay:10.37,2013-03-01 23:17:00,
2013-03-01 18:22:00,38.6,27.8,29.66,NW,318,2.0,3.5,65,0.00,CLR,,0.00,WeatherDisplay:10.37,2013-03-01 23:22:00,
2013-03-01 18:27:00,38.6,27.8,29.66,NW,318,1.6,4.6,65,0.00,CLR,,0.00,WeatherDisplay:10.37,2013-03-01 23:27:00,
2013-03-01 18:32:00,38.5,28.1,29.66,NNW,336,0.0,0.0,66,0.00,CLR,,0.00,WeatherDisplay:10.37,2013-03-01 23:32:00,
2013-03-01 18:38:00,38.4,28.0,29.66,NNW,336,2.0,3.5,66,0.00,CLR,,0.00,WeatherDisplay:10.37,2013-03-01 23:38:00,
2013-03-01 18:43:00,38.4,28.0,29.66,NNW,335,0.5,2.3,66,0.00,CLR,,0.00,WeatherDisplay:10.37,2013-03-01 23:43:00,
2013-03-01 18:48:00,38.4,28.0,29.66,NNW,335,1.1,2.3,66,0.00,CLR,,0.00,WeatherDisplay:10.37,2013-03-01 23:48:00,
2013-03-01 18:53:00,38.3,27.9,29.66,NNW,335,0.7,2.3,66,0.00,CLR,,0.00,WeatherDisplay:10.37,2013-03-01 23:53:00,
2013-03-01 18:58:00,38.3,27.9,29.66,NNW,335,1.3,3.0,66,0.00,CLR,,0.00,WeatherDisplay:10.37,2013-03-01 23:58:00,
2013-03-01 19:04:00,38.2,27.8,29.66,NNW,335,0.0,1.2,66,0.00,CLR,,0.00,WeatherDisplay:10.37,2013-03-02 00:04:00,
2013-03-01 19:09:00,38.2,28.2,29.66,NNW,335,0.0,0.0,67,0.00,CLR,,0.00,WeatherDisplay:10.37,2013-03-02 00:09:00,
2013-03-01 19:14:00,38.2,28.2,29.66,NNW,335,1.1,3.0,67,0.00,CLR,,0.00,WeatherDisplay:10.37,2013-03-02 00:14:00,
2013-03-01 19:20:00,38.1,28.1,29.66,NNW,335,1.7,3.0,67,0.00,CLR,,0.00,WeatherDisplay:10.37,2013-03-02 00:20:00,
2013-03-01 19:25:00,38.1,28.1,29.66,NNW,346,3.0,6.0,67,0.00,CLR,CLR,0.00,WeatherDisplay:10.37,2013-03-02 00:25:00,
2013-03-01 19:30:00,38.1,28.1,29.66,North,356,0.0,4.0,67,0.00,CLR,CLR,0.00,WeatherDisplay:10.37,2013-03-02 00:30:00,
2013-03-01 19:35:00,38.1,28.1,29.67,North,350,2.0,4.0,67,0.00,CLR,CLR,0.00,WeatherDisplay:10.37,2013-03-02 00:35:00,
2013-03-01 19:40:00,38.0,28.0,29.67,NNW,345,2.0,5.0,67,0.00,CLR,CLR,0.00,WeatherDisplay:10.37,2013-03-02 00:40:00,
2013-03-01 19:45:00,38.0,27.6,29.66,NNW,348,2.0,6.0,66,0.00,CLR,CLR,0.00,WeatherDisplay:10.37,2013-03-02 00:45:00,
2013-03-01 19:50:00,37.9,27.5,29.67,NNW,332,1.0,5.0,66,0.00,CLR,CLR,0.00,WeatherDisplay:10.37,2013-03-02 00:50:00,
2013-03-01 19:55:00,37.9,27.5,29.66,NNW,333,1.3,3.5,66,0.00,CLR,,0.00,WeatherDisplay:10.37,2013-03-02 00:55:00,
2013-03-01 20:00:00,37.9,27.9,29.67,NNW,333,1.5,4.0,67,0.00,CLR,,0.00,WeatherDisplay:10.37,2013-03-02 01:00:00,
2013-03-01 20:05:00,37.8,27.5,29.67,NW,309,1.8,3.5,66,0.00,CLR,,0.00,WeatherDisplay:10.37,2013-03-02 01:05:00,
2013-03-01 20:11:00,37.8,27.5,29.66,NW,306,0.9,4.6,66,0.00,CLR,,0.00,WeatherDisplay:10.37,2013-03-02 01:11:00,
2013-03-01 20:16:00,37.7,27.4,29.67,NW,312,2.7,4.6,66,0.00,CLR,,0.00,WeatherDisplay:10.37,2013-03-02 01:16:00,
2013-03-01 20:21:00,37.7,27.4,29.66,NW,324,2.6,3.5,66,0.00,CLR,,0.00,WeatherDisplay:10.37,2013-03-02 01:21:00,
2013-03-01 20:26:00,37.7,27.7,29.67,NW,313,2.5,3.5,67,0.00,CLR,,0.00,WeatherDisplay:10.37,2013-03-02 01:26:00,
2013-03-01 20:32:00,37.6,27.6,29.66,NW,304,2.3,4.0,67,0.00,CLR,,0.00,WeatherDisplay:10.37,2013-03-02 01:32:00,
2013-03-01 20:37:00,37.6,27.6,29.66,NW,310,3.4,6.0,67,0.00,CLR,,0.00,WeatherDisplay:10.37,2013-03-02 01:37:00,
2013-03-01 20:42:00,37.5,27.2,29.66,NNW,330,3.8,8.1,66,0.00,CLR,,0.00,WeatherDisplay:10.37,2013-03-02 01:42:00,
2013-03-01 20:47:00,37.5,27.2,29.66,NNW,329,2.7,3.5,66,0.00,CLR,,0.00,WeatherDisplay:10.37,2013-03-02 01:47:00,
2013-03-01 20:52:00,37.5,27.2,29.66,NW,319,2.1,5.0,66,0.00,CLR,,0.00,WeatherDisplay:10.37,2013-03-02 01:52:00,
2013-03-01 20:57:00,37.4,27.1,29.66,WNW,285,3.7,5.0,66,0.00,CLR,,0.00,WeatherDisplay:10.37,2013-03-02 01:57:00,
2013-03-01 21:02:00,37.4,27.1,29.66,NW,310,3.1,5.8,66,0.00,CLR,,0.00,WeatherDisplay:10.37,2013-03-02 02:02:00,
2013-03-01 21:08:00,37.4,27.1,29.66,WNW,283,4.7,6.9,66,0.00,CLR,,0.00,WeatherDisplay:10.37,2013-03-02 02:08:00,
2013-03-01 21:13:00,37.3,27.0,29.66,NW,307,3.9,5.8,66,0.00,CLR,,0.00,WeatherDisplay:10.37,2013-03-02 02:13:00,
2013-03-01 21:18:00,37.3,27.0,29.66,WNW,302,4.8,9.2,66,0.00,CLR,,0.00,WeatherDisplay:10.37,2013-03-02 02:18:00,
2013-03-01 21:23:00,37.2,26.9,29.67,NW,318,2.9,3.5,66,0.00,CLR,,0.00,WeatherDisplay:10.37,2013-03-02 02:23:00,
2013-03-01 21:28:00,37.1,27.2,29.66,NNW,335,3.2,4.0,67,0.00,CLR,,0.00,WeatherDisplay:10.37,2013-03-02 02:28:00,
2013-03-01 21:34:00,37.1,27.2,29.66,NW,324,3.7,6.0,67,0.00,CLR,,0.00,WeatherDisplay:10.37,2013-03-02 02:34:00,
2013-03-01 21:39:00,37.1,27.2,29.67,North,0,2.1,9.2,67,0.00,CLR,,0.00,WeatherDisplay:10.37,2013-03-02 02:39:00,
2013-03-01 21:44:00,37.0,27.1,29.66,North,351,3.2,4.6,67,0.00,CLR,,0.00,WeatherDisplay:10.37,2013-03-02 02:44:00,
2013-03-01 21:49:00,37.0,27.1,29.66,North,0,2.7,5.8,67,0.00,CLR,,0.00,WeatherDisplay:10.37,2013-03-02 02:49:00,
2013-03-01 21:55:00,37.0,27.1,29.66,NW,325,2.3,4.0,67,0.00,CLR,,0.00,WeatherDisplay:10.37,2013-03-02 02:55:00,
2013-03-01 22:00:00,36.9,27.3,29.66,NW,304,6.2,11.0,68,0.00,CLR,,0.00,WeatherDisplay:10.37,2013-03-02 03:00:00,
2013-03-01 22:05:00,36.9,27.3,29.66,NW,317,4.5,9.2,68,0.00,CLR,,0.00,WeatherDisplay:10.37,2013-03-02 03:05:00,
2013-03-01 22:10:00,36.8,27.2,29.66,NNW,330,3.0,8.0,68,0.00,CLR,CLR,0.00,WeatherDisplay:10.37,2013-03-02 03:10:00,
2013-03-01 22:15:00,36.8,27.2,29.66,NNW,340,3.0,5.0,68,0.00,CLR,CLR,0.00,WeatherDisplay:10.37,2013-03-02 03:15:00,
2013-03-01 22:20:00,36.7,27.1,29.66,NNW,336,2.0,7.0,68,0.00,CLR,CLR,0.00,WeatherDisplay:10.37,2013-03-02 03:20:00,
2013-03-01 22:25:00,36.7,27.1,29.66,NW,323,3.0,8.0,68,0.00,CLR,CLR,0.00,WeatherDisplay:10.37,2013-03-02 03:25:00,
2013-03-01 22:30:00,36.6,27.4,29.66,NW,322,3.0,7.0,69,0.00,CLR,CLR,0.00,WeatherDisplay:10.37,2013-03-02 03:30:00,
2013-03-01 22:35:00,36.6,27.4,29.66,North,9,3.8,7.0,69,0.00,CLR,,0.00,WeatherDisplay:10.37,2013-03-02 03:35:00,
2013-03-01 22:40:00,36.6,27.4,29.66,North,359,1.7,3.5,69,0.00,CLR,,0.00,WeatherDisplay:10.37,2013-03-02 03:40:00,
2013-03-01 22:46:00,36.5,27.3,29.66,NNW,337,2.4,5.0,69,0.00,CLR,,0.00,WeatherDisplay:10.37,2013-03-02 03:46:00,
2013-03-01 22:51:00,36.5,27.3,29.66,NW,315,2.8,4.6,69,0.00,CLR,,0.00,WeatherDisplay:10.37,2013-03-02 03:51:00,
2013-03-01 22:56:00,36.4,27.5,29.67,NW,322,3.1,4.0,70,0.00,CLR,,0.00,WeatherDisplay:10.37,2013-03-02 03:56:00,
2013-03-01 23:01:00,36.4,27.5,29.66,NW,309,3.2,4.6,70,0.00,CLR,,0.00,WeatherDisplay:10.37,2013-03-02 04:01:00,
2013-03-01 23:06:00,36.4,27.2,29.66,NW,322,4.6,7.0,69,0.00,CLR,,0.00,WeatherDisplay:10.37,2013-03-02 04:06:00,
2013-03-01 23:12:00,36.3,27.1,29.66,NW,317,3.4,6.9,69,0.00,CLR,,0.00,WeatherDisplay:10.37,2013-03-02 04:12:00,
2013-03-01 23:17:00,36.3,27.4,29.66,NW,319,2.7,4.6,70,0.00,CLR,,0.00,WeatherDisplay:10.37,2013-03-02 04:17:00,
2013-03-01 23:22:00,36.2,27.4,29.66,NW,304,2.0,4.6,70,0.00,CLR,,0.00,WeatherDisplay:10.37,2013-03-02 04:22:00,
2013-03-01 23:27:00,36.2,27.4,29.66,NNW,330,3.6,5.8,70,0.00,CLR,,0.00,WeatherDisplay:10.37,2013-03-02 04:27:00,
2013-03-01 23:32:00,36.2,27.4,29.66,WNW,301,3.9,5.8,70,0.00,CLR,,0.00,WeatherDisplay:10.37,2013-03-02 04:32:00,
2013-03-01 23:38:00,36.1,27.3,29.66,NW,305,2.4,4.6,70,0.00,CLR,,0.00,WeatherDisplay:10.37,2013-03-02 04:38:00,
2013-03-01 23:43:00,36.1,27.3,29.66,NW,316,2.2,5.8,70,0.00,CLR,,0.00,WeatherDisplay:10.37,2013-03-02 04:43:00,
2013-03-01 23:48:00,36.1,27.3,29.66,NW,316,2.6,5.8,70,0.00,CLR,,0.00,WeatherDisplay:10.37,2013-03-02 04:48:00,
2013-03-01 23:53:00,36.1,27.6,29.66,NW,322,0.6,3.5,71,0.00,CLR,,0.00,WeatherDisplay:10.37,2013-03-02 04:53:00,
2013-03-01 23:58:00,36.0,27.5,29.66,NW,322,1.5,3.5,71,0.00,CLR,,0.00,WeatherDisplay:10.37,2013-03-02 04:58:00,